Flag for Canada Weather past 2 weeks in Brampton, Ontario, Canada

Now
54 °F

Broken clouds.


Feels Like: 52 °F
Forecast: N/A
Wind: 7 mph from Southeast

Location: Toronto Pearson International Airport


UV Index: N/A

Visibility: 15 mi


Pressure: 30.23 "Hg

Humidity: 41%

Dew point: 30 °F

Location of BramptonLocation

Historic Weather in Brampton

°F

Brampton temperature yesterday

Maximum temperature yesterday: 50 °F (at 2:00 PM)
Minimum temperature yesterday: 32 °F (at 4:00 AM)
Average temperature yesterday: 41 °F

Past Weeks' High & Low Weather Summary

 TemperatureHumidityPressure
High72 °F (Apr 13, 5:00 PM)93% (Apr 7, 8:00 PM)30.56 "Hg (Apr 7, 8:00 PM)
Low21 °F (Apr 16, 3:00 AM)26% (Apr 11, 6:00 PM)29.33 "Hg (Apr 8, 6:00 AM)
Average43 °F62%30.04 "Hg
* Reported Apr 5 6:00 PM — Apr 20 6:00 PM, Brampton, Weather by CustomWeather, © 2014

Note: Actual official high and low records may vary slightly from our data, if they occured in-between our weather recording intervals... More about our weather records

Advertising

Historic Weather Conditions — Data for Previous 24 hours

 ConditionsComfort  
Time TempWeatherWind HumidityBarometerVisibility
6:00 PM
Apr 20
54 °FBroken clouds.7 mph41%30.23 "Hg15 mi
5:00 PM52 °FBroken clouds.10 mph44%30.26 "Hg15 mi
4:00 PM54 °FBroken clouds.8 mph33%30.28 "Hg15 mi
3:00 PM54 °FScattered clouds.12 mph41%30.30 "Hg15 mi
2:00 PM52 °FScattered clouds.12 mph47%30.33 "Hg15 mi
1:00 PM54 °FPassing clouds.8 mph41%30.34 "Hg15 mi
12:00 PM50 °FPartly sunny.7 mph50%30.37 "Hg15 mi
11:00 AM50 °FPartly sunny.9 mph43%30.38 "Hg15 mi
10:00 AM46 °FPartly sunny.10 mph50%30.40 "Hg15 mi
9:00 AM46 °FPartly sunny.12 mph46%30.41 "Hg15 mi
8:00 AM41 °FPartly sunny.6 mph66%30.41 "Hg15 mi
7:00 AM37 °FPassing clouds.5 mph70%30.42 "Hg15 mi
6:00 AM37 °FPassing clouds.6 mph70%30.41 "Hg15 mi
5:00 AM37 °FClear.5 mph65%30.42 "Hg15 mi
4:00 AM37 °FClear.5 mph65%30.42 "Hg15 mi
3:00 AM39 °FClear.5 mph61%30.42 "Hg15 mi
2:00 AM39 °FClear.3 mph61%30.43 "Hg15 mi
1:00 AM41 °FPassing clouds.3 mph57%30.43 "Hg15 mi
12:00 AM41 °FClear.2 mph57%30.43 "Hg15 mi
11:00 PM
Apr 19
43 °FClear.3 mph53%30.42 "Hg15 mi
10:00 PM43 °FClear.2 mph57%30.41 "Hg15 mi
9:00 PM43 °FPassing clouds.5 mph57%30.40 "Hg15 mi
8:00 PM45 °FPassing clouds.5 mph53%30.41 "Hg15 mi
7:00 PM48 °FPassing clouds.7 mph50%30.42 "Hg15 mi
Weather by CustomWeather, © 2014

See weather overview